Weather History for KART - January, 2013

Change the Weather History Date:

Wednesday, January 2, 2013

  Actual Average Record
Temperature  
Mean Temperature 10 °F 21 °F  
Max Temperature 28 °F 30 °F 55 °F (2000)
Min Temperature -8 °F 12 °F -30 °F (1999)
Degree Days  
Heating Degree Days 55 44  
Month to date heating degree days 105 88  
Since 1 July heating degree days 2543 2884  
Cooling Degree Days 0 0  
Month to date cooling degree days 0 0  
Year to date cooling degree days 0 0  
Moisture  
Dew Point 4 °F    
Average Humidity 67    
Maximum Humidity 83    
Minimum Humidity 50    
Precipitation  
Precipitation T in 0.09 in 0.44 in (2005)
Month to date precipitation T 0.18  
Year to date precipitation T 0.18  
Sea Level Pressure  
Sea Level Pressure 30.11 in    
Wind  
Wind Speed 10 mph (North)    
Max Wind Speed 23 mph    
Max Gust Speed 29 mph    
Visibility 10 miles    
Events Snow    
T = Trace of Precipitation, MM = Missing Value Source: NWS Daily Summary

Daily Weather History Graph

Daily Weather History Graph

Search for Another Location

Airport or City:

Trip Planner

Search our weather history database for the weather conditions in past years. The results will help you decide how hot, cold, wet, or windy it might be!

Date:

Astronomy

Jan. 02, 2013 Rise Set
Actual Time 7:38 AM EST 4:37 PM EST
Civil Twilight 7:06 AM EST 5:10 PM EST
Nautical Twilight 6:29 AM EST 5:47 PM EST
Astronomical Twilight 5:54 AM EST 6:22 PM EST
Moon 10:20 PM EST (1/2) 10:08 AM EST (1/2)
Length of Visible Light 10h 04m
Length of Day
8h 59m
Waning Gibbous, 75% of the Moon is Illuminated
Jan 2
Waning Gibbous
Jan 4
Last Quarter
Jan 11
New
Jan 18
First Quarter
Jan 26
Full

Hourly Weather History & Observations

Time (EST) Temp. Windchill Dew Point Humidity Pressure Visibility Wind Dir Wind Speed Gust Speed Precip Events Conditions
12:56 AM 10.0 °F -0.9 °F 3.9 °F 76% 29.98 in 10.0 mi South 6.9 mph - N/A   Mostly Cloudy
1:56 AM 14.0 °F 8.2 °F 7.0 °F 74% 29.96 in 10.0 mi SSE 3.5 mph - N/A   Overcast
2:34 AM 24.8 °F 11.1 °F 12.2 °F 59% 29.92 in 10.0 mi West 18.4 mph 25.3 mph N/A   Overcast
2:56 AM 26.1 °F 13.1 °F 12.9 °F 58% 29.94 in 10.0 mi WSW 17.3 mph 26.5 mph N/A   Overcast
3:56 AM 28.0 °F 15.3 °F 15.1 °F 58% 29.92 in 10.0 mi West 18.4 mph 27.6 mph N/A   Overcast
4:56 AM 28.0 °F 14.9 °F 17.1 °F 63% 29.92 in 10.0 mi West 19.6 mph 27.6 mph N/A   Overcast
5:56 AM 27.0 °F 16.1 °F 19.0 °F 72% 29.93 in 5.0 mi WNW 12.7 mph 24.2 mph 0.00 in Snow Light Snow
6:56 AM 27.0 °F 14.3 °F 17.1 °F 66% 29.95 in 10.0 mi WNW 17.3 mph 24.2 mph 0.00 in   Overcast
7:56 AM 25.0 °F 13.6 °F 17.1 °F 72% 29.99 in 10.0 mi WNW 12.7 mph - N/A   Overcast
8:56 AM 24.1 °F 11.5 °F 16.0 °F 71% 30.02 in 10.0 mi NW 15.0 mph - N/A   Overcast
9:38 AM 21.2 °F 7.8 °F 15.8 °F 80% 30.03 in 7.0 mi North 15.0 mph - N/A   Overcast
9:56 AM 18.0 °F 2.6 °F 10.9 °F 74% 30.08 in 6.0 mi North 17.3 mph 26.5 mph 0.00 in   Haze
10:04 AM 17.6 °F 4.3 °F 8.6 °F 68% 30.05 in 10.0 mi North 12.7 mph 25.3 mph N/A   Overcast
10:56 AM 16.0 °F 2.3 °F 5.0 °F 62% 30.11 in 10.0 mi NNE 12.7 mph - N/A   Overcast
11:56 AM 17.1 °F 3.6 °F 5.0 °F 59% 30.12 in 10.0 mi NNE 12.7 mph - N/A   Clear
12:56 PM 16.0 °F 2.3 °F 3.0 °F 57% 30.12 in 10.0 mi North 12.7 mph - N/A   Overcast
1:56 PM 12.9 °F -1.6 °F -0.0 °F 56% 30.15 in 10.0 mi NNE 12.7 mph - N/A   Overcast
2:56 PM 10.9 °F -3.4 °F -2.9 °F 54% 30.19 in 10.0 mi North 11.5 mph - N/A   Partly Cloudy
3:56 PM 9.0 °F -5.1 °F -7.1 °F 48% 30.22 in 10.0 mi North 10.4 mph - N/A   Mostly Cloudy
4:56 PM 6.1 °F -7.8 °F -7.1 °F 55% 30.24 in 10.0 mi NNE 9.2 mph - N/A   Scattered Clouds
5:56 PM 3.9 °F -9.4 °F -8.0 °F 58% 30.26 in 10.0 mi NNE 8.1 mph - N/A   Mostly Cloudy
6:56 PM 1.0 °F -12.9 °F -8.0 °F 66% 30.27 in 10.0 mi NE 8.1 mph - N/A   Scattered Clouds
7:56 PM -0.0 °F -14.2 °F -9.9 °F 63% 30.28 in 10.0 mi ENE 8.1 mph - N/A   Clear
8:56 PM -2.0 °F -12.2 °F -11.0 °F 66% 30.29 in 10.0 mi East 4.6 mph - N/A   Clear
9:56 PM -4.0 °F - -11.0 °F 72% 30.31 in 10.0 mi Calm Calm - N/A   Clear
10:56 PM -4.0 °F - -11.9 °F 69% 30.31 in 10.0 mi Calm Calm - N/A   Clear
11:56 PM -7.1 °F - -13.0 °F 75% 30.32 in 10.0 mi Calm Calm - N/A   Scattered Clouds